Hourly Weather Roundup
Issued by NWS Central Illinois

Home | Current Version | Previous Version | Text Only | Print | Product List | Glossary On
Versions: 1 2 3 4 5 6 7 8 9 10 11 12 13 14 15 16 17 18 19 20 21 22 23 24 25 26 27 28 29 30 31 32 33 34 35 36 37 38 39 40 41 42 43 44 45 46 47 48 49 50
574
NZUS43 KILX 311610
HWRILX

AREA WEATHER ROUNDUP
NATIONAL WEATHER SERVICE, LINCOLN IL
1100 AM CDT TUE MAY 31 2016


CITY           SKY/WX    TMP DP  RH WIND       PRES   REMARKS
BLOOMINGTON    MOSUNNY   81  65  58 S10       29.99S HX  83
CHAMPAIGN      CLOUDY    83  59  44 S10       29.98S HX  83
DANVILLE       CLOUDY    83  58  43 S10       29.96S HX  82
DECATUR        SUNNY     81  62  52 S8        29.98S HX  82
EFFINGHAM      SUNNY     83  65  54 S3        30.00R HX  85
FLORA          SUNNY     85  62  44 SE9       29.98S HX  85
GALESBURG      CLOUDY    74  62  66 E6        29.97F
JACKSONVILLE   CLOUDY    70  61  73 SE7       30.01S
LACON          MOSUNNY   77  64  63 S3        29.95F
LAWRENCEVILLE  SUNNY     86  58  38 SE12      29.98S HX  85
LITCHFIELD     LGT RAIN  65  61  88 N5        30.00F
$$


CITY           SKY/WX    TMP DP  RH WIND       PRES   REMARKS
LINCOLN        CLOUDY    82  64  54 S3        29.96F HX  83
MACOMB         SUNNY     76  61  58 SW5       29.99F
MATTOON        CLOUDY    78  63  59 SE6       29.98S HX  80
MT CARMEL AP   SUNNY     85  58  40 SE10      29.98S HX  84
OLNEY-NOBLE AP SUNNY     82  59  44 SE8       29.98S HX  82
PARIS          CLOUDY    83  62  48 SE5       29.99S HX  84
PEORIA         CLOUDY    78  62  57 W8        29.97S HX  80
PONTIAC        MOSUNNY   85  65  51 S10       29.97S HX  86
RANTOUL        CLOUDY    84  60  44 S9        29.98R HX  84
ROBINSON       MOSUNNY   82  64  54 SE8       29.99R HX  84
SPRINGFIELD    TSTM      66  63  90 W8        30.04R FOG
TAYLORVILLE    PTSUNNY   70  63  77 W18       30.00S
$$

...REGIONAL REPORTS...


CITY           SKY/WX    TMP DP  RH WIND       PRES   REMARKS
CHICAGO O`HARE PTSUNNY   80  55  42 E13G18    29.98F HX  80
KANKAKEE       PTSUNNY   81  60  48 SE9       29.97F HX  82
MOLINE         CLOUDY    76  63  64 VRB3      29.95F
MOUNT STERLING CLOUDY    75  65  70 SE5       29.98S
MOUNT VERNON   CLOUDY    82  64  54 SE8       29.99R HX  84
PITTSFIELD     CLOUDY    74  64  68 SE7       30.01R
QUINCY         CLOUDY    76  61  59 VRB7      29.98S
ROCKFORD       PTSUNNY   78  58  49 SW13G23   30.01R
$$


CITY           SKY/WX    TMP DP  RH WIND       PRES   REMARKS
BURLINGTON     SUNNY     78  61  55 CALM      29.96F HX  80
CEDAR RAPIDS   SUNNY     76  64  66 S12       29.93S
DES MOINES     CLOUDY    76  61  59 S13       29.92S
KIRKSVILLE     MOSUNNY   74  64  71 SE9       29.96F
OTTUMWA        CLOUDY    73  61  65 VRB3      29.94F
ST LOUIS       CLOUDY    74  62  66 E9        30.00R
$$


CITY           SKY/WX    TMP DP  RH WIND       PRES   REMARKS
TERRE HAUTE    SUNNY     83  60  45 SE8       29.99R HX  83
EVANSVILLE     MOSUNNY   84  60  44 S7        29.99R HX  84
INDIANAPOLIS   CLOUDY    82  60  47 SE5       29.99F HX  82
LAFAYETTE      MOSUNNY   81  61  50 VRB6      29.98S HX  82
MADISON        PTSUNNY   76  51  41 SE15      29.96S
MILWAUKEE      MOSUNNY   64  56  75 NE8       30.03S
$$






USA.gov is the U.S. government's official web portal to all federal, state and local government web resources and services.